Weather History for Glasgow, United Kingdom

Change the Weather History Date:

Friday, August 9, 2013

  Actual Average Record
Temperature  
Mean Temperature 58 °F -  
Max Temperature 64 °F 64 °F 80 °F (2003)
Min Temperature 53 °F 48 °F 41 °F (2007)
Degree Days  
Heating Degree Days 6    
Growing Degree Days 8 (Base 50)    
Moisture  
Dew Point 53 °F    
Average Humidity 80    
Maximum Humidity 100    
Minimum Humidity 59    
Precipitation  
Precipitation 0.00 in - - ()
Sea Level Pressure  
Sea Level Pressure 29.99 in    
Wind  
Wind Speed 7 mph ()    
Max Wind Speed 16 mph    
Max Gust Speed -    
Visibility 5.8 miles    
Events Rain    
Averages and records for this station are not official NWS values.
T = Trace of Precipitation, MM = Missing Value Source: Averaged Metar Reports

Daily Weather History Graph

Daily Weather History Graph

Search for Another Location

Airport:

Trip Planner

Search our weather history database for the weather conditions in past years. The results will help you decide how hot, cold, wet, or windy it might be!

Date:

Astronomy

Aug. 09, 2013 Rise Set
Actual Time 5:37 AM BST 9:07 PM BST
Civil Twilight 4:52 AM BST 9:52 PM BST
Nautical Twilight 3:49 AM BST 10:54 PM BST
Astronomical Twilight 1:53 AM BST 12:40 AM BST
Moon 8:50 AM BST (8/9) 9:24 PM BST (8/9)
Length of Visible Light 16h 59m
Length of Day
15h 29m
Waxing Crescent, 6% of the Moon is Illuminated
Aug 9
Waxing Crescent
Aug 14
First Quarter
Aug 21
Full
Aug 28
Last Quarter
Sep 5
New

Hourly Weather History & Observations

Time (BST) Temp. Dew Point Humidity Pressure Visibility Wind Dir Wind Speed Gust Speed Precip Events Conditions
12:20 AM 59.0 °F 53.6 °F 82% 29.89 in 6.2 mi SE 4.6 mph - N/A Rain Light Rain
12:50 AM 59.0 °F 55.4 °F 88% 29.89 in 6.2 mi ESE 3.5 mph - N/A   Scattered Clouds
1:20 AM 57.2 °F 55.4 °F 94% 29.89 in 6.2 mi ENE 3.5 mph - N/A Rain Light Rain
1:50 AM 57.2 °F 55.4 °F 94% 29.89 in 6.2 mi NE 3.5 mph - N/A Rain Light Rain
2:20 AM 57.2 °F 55.4 °F 94% 29.86 in 3.7 mi East 4.6 mph - N/A Rain Rain
2:50 AM 57.2 °F 55.4 °F 94% 29.86 in 6.2 mi East 3.5 mph - N/A Rain Light Rain
3:20 AM 57.2 °F 55.4 °F 94% 29.86 in 4.3 mi NE 3.5 mph - N/A Rain Light Rain
3:50 AM 57.2 °F 55.4 °F 94% 29.86 in 4.3 mi ENE 4.6 mph - N/A Rain Light Rain
4:20 AM 57.2 °F 55.4 °F 94% 29.89 in 2.5 mi Variable 3.5 mph - N/A   Drizzle
4:50 AM 57.2 °F 55.4 °F 94% 29.89 in 3.7 mi Calm Calm - N/A   Mostly Cloudy
5:20 AM 55.4 °F 55.4 °F 100% 29.89 in 3.7 mi West 3.5 mph - N/A   Scattered Clouds
5:50 AM 57.2 °F 55.4 °F 94% 29.89 in 6.2 mi Variable 2.3 mph - N/A   Mostly Cloudy
6:20 AM 55.4 °F 55.4 °F 100% 29.89 in 6.2 mi WSW 5.8 mph - N/A   Scattered Clouds
6:50 AM 57.2 °F 55.4 °F 94% 29.89 in 6.2 mi West 4.6 mph - N/A   Mostly Cloudy
7:20 AM 59.0 °F 55.4 °F 88% 29.92 in 6.2 mi West 4.6 mph - N/A   Mostly Cloudy
7:50 AM 57.2 °F 55.4 °F 94% 29.92 in 5.6 mi West 6.9 mph - N/A Rain Light Rain
8:20 AM 59.0 °F 57.2 °F 94% 29.92 in 6.2 mi West 6.9 mph - N/A   Mostly Cloudy
8:50 AM 59.0 °F 55.4 °F 88% 29.95 in 6.2 mi West 6.9 mph - N/A   Mostly Cloudy
9:20 AM 59.0 °F 55.4 °F 88% 29.95 in 6.2 mi WSW 10.4 mph - N/A   Mostly Cloudy
9:50 AM 60.8 °F 55.4 °F 82% 29.95 in 6.2 mi West 11.5 mph - N/A   Scattered Clouds
10:20 AM 62.6 °F 55.4 °F 77% 29.95 in 6.2 mi West 10.4 mph - N/A   Scattered Clouds
10:50 AM 62.6 °F 55.4 °F 77% 29.98 in 6.2 mi West 10.4 mph - N/A   Scattered Clouds
11:20 AM 60.8 °F 53.6 °F 77% 29.98 in 6.2 mi West 11.5 mph - N/A   Mostly Cloudy
11:50 AM 60.8 °F 53.6 °F 77% 29.98 in 6.2 mi West 10.4 mph - N/A   Mostly Cloudy
12:20 PM 62.6 °F 55.4 °F 77% 30.01 in 6.2 mi WNW 10.4 mph - N/A   Mostly Cloudy
12:50 PM 60.8 °F 53.6 °F 77% 30.01 in 6.2 mi WNW 12.7 mph - N/A   Mostly Cloudy
1:20 PM 60.8 °F 53.6 °F 77% 30.01 in 6.2 mi WNW 15.0 mph - N/A   Mostly Cloudy
1:50 PM 60.8 °F 51.8 °F 72% 30.01 in 6.2 mi WNW 13.8 mph - N/A   Mostly Cloudy
2:20 PM 60.8 °F 51.8 °F 72% 30.04 in 6.2 mi WNW 13.8 mph - N/A   Mostly Cloudy
2:50 PM 62.6 °F 51.8 °F 68% 30.04 in 6.2 mi WNW 11.5 mph - N/A   Mostly Cloudy
3:20 PM 62.6 °F 51.8 °F 68% 30.04 in 6.2 mi WNW 12.7 mph - N/A   Mostly Cloudy
3:50 PM 62.6 °F 51.8 °F 68% 30.04 in 6.2 mi West 15.0 mph - N/A   Scattered Clouds
4:20 PM 64.4 °F 50.0 °F 59% 30.04 in 6.2 mi West 16.1 mph - N/A   Partly Cloudy
4:50 PM 62.6 °F 48.2 °F 59% 30.04 in 6.2 mi WNW 16.1 mph - N/A   Partly Cloudy
5:20 PM 62.6 °F 50.0 °F 63% 30.06 in 6.2 mi WNW 13.8 mph - N/A   Scattered Clouds
5:50 PM 62.6 °F 50.0 °F 63% 30.06 in 6.2 mi NW 12.7 mph - N/A   Scattered Clouds
6:20 PM 60.8 °F 48.2 °F 63% 30.06 in 6.2 mi West 15.0 mph - N/A   Scattered Clouds
6:50 PM 59.0 °F 48.2 °F 67% 30.06 in 6.2 mi WNW 11.5 mph - N/A   Scattered Clouds
7:20 PM 59.0 °F 48.2 °F 67% 30.09 in 6.2 mi West 12.7 mph - N/A   Scattered Clouds
7:50 PM 59.0 °F 48.2 °F 67% 30.09 in 6.2 mi West 10.4 mph - N/A   Scattered Clouds
8:20 PM 57.2 °F 48.2 °F 72% 30.09 in 6.2 mi West 9.2 mph - N/A   Scattered Clouds
8:50 PM 57.2 °F 48.2 °F 72% 30.09 in 6.2 mi West 5.8 mph - N/A   Mostly Cloudy
9:20 PM 57.2 °F 48.2 °F 72% 30.12 in 6.2 mi West 8.1 mph - N/A   Mostly Cloudy
9:50 PM 55.4 °F 48.2 °F 77% 30.12 in 6.2 mi West 8.1 mph - N/A   Scattered Clouds
10:20 PM 55.4 °F 48.2 °F 77% 30.12 in - West 6.9 mph - N/A   Clear
10:50 PM 55.4 °F 48.2 °F 77% 30.12 in - West 5.8 mph - N/A   Clear
11:20 PM 53.6 °F 48.2 °F 82% 30.12 in - West 5.8 mph - N/A   Clear
11:50 PM 55.4 °F 48.2 °F 77% 30.12 in - West 5.8 mph - N/A   Clear